When you browse on this site, cookies collect data to enhance your experience and personalize the content and advertising you see.
Visit our Privacy Policy to learn more. By continuing to use the site, you agree to this use of cookies and data.
  • In Hungary
  • List of Countries
  • For 7 days
  • Water Temperature
  • Satellite Maps
  • Weather Map
  • News
  • Weather Widgets
  • user-avatar
    Login

    Hourly Weather Chruscice

    Today, 25 May, Saturday

    Time Temperature Precipitation Wind Pressure Humidity
    00:00 +12°C° 0 mm 2 mps 739 mmHg 91%
    01:00 +12°C° 0 mm 2 mps 739 mmHg 93%
    02:00 +12°C° 0 mm 2 mps 739 mmHg 93%
    03:00 +10°C° 0 mm 2 mps 739 mmHg 93%
    04:00 +10°C° 0 mm 2 mps 739 mmHg 93%
    05:00 +13°C° 0 mm 2 mps 739 mmHg 88%
    06:00 +14°C° 0 mm 2 mps 739 mmHg 83%
    07:00 +16°C° 0 mm 3 mps 739 mmHg 75%
    08:00 +17°C° 0 mm 3 mps 739 mmHg 68%
    09:00 +19°C° 0 mm 3 mps 739 mmHg 62%
    10:00 +20°C° 0 mm 3 mps 739 mmHg 55%
    11:00 +21°C° 0 mm 3 mps 739 mmHg 54%
    12:00 +21°C° 0 mm 3 mps 739 mmHg 52%
    13:00 +22°C° 0 mm 4 mps 739 mmHg 53%
    14:00 +22°C° 0.1 mm 4 mps 739 mmHg 56%
    15:00 +21°C° 0.1 mm 4 mps 739 mmHg 60%
    16:00 +21°C° 0.1 mm 4 mps 739 mmHg 64%
    17:00 +20°C° 0.1 mm 4 mps 739 mmHg 69%
    18:00 +18°C° 0.1 mm 3 mps 739 mmHg 74%
    19:00 +17°C° 0.1 mm 2 mps 739 mmHg 80%
    20:00 +16°C° 0 mm 2 mps 739 mmHg 83%
    21:00 +15°C° 0 mm 2 mps 740 mmHg 85%
    22:00 +14°C° 0 mm 1 mps 740 mmHg 88%
    23:00 +13°C° 0 mm 1 mps 740 mmHg 88%

    Tomorrow, 26 May, Sunday

    Time Temperature Precipitation Wind Pressure Humidity
    00:00 +13°C° 0 mm 1 mps 740 mmHg 89%
    01:00 +12°C° 0 mm 1 mps 740 mmHg 89%
    02:00 +12°C° 0 mm 1 mps 740 mmHg 90%
    03:00 +12°C° 0 mm 1 mps 741 mmHg 91%
    04:00 +12°C° 0 mm 1 mps 741 mmHg 91%
    05:00 +14°C° 0 mm 1 mps 741 mmHg 88%
    06:00 +15°C° 0 mm 2 mps 741 mmHg 84%
    07:00 +17°C° 0 mm 2 mps 741 mmHg 80%
    08:00 +18°C° 0.3 mm 3 mps 741 mmHg 76%
    09:00 +19°C° 0.3 mm 3 mps 741 mmHg 73%
    10:00 +20°C° 0.3 mm 4 mps 740 mmHg 70%
    11:00 +21°C° 0.3 mm 4 mps 740 mmHg 67%
    12:00 +21°C° 0.3 mm 4 mps 740 mmHg 65%
    13:00 +22°C° 0.3 mm 4 mps 740 mmHg 62%
    14:00 +22°C° 0.1 mm 4 mps 740 mmHg 61%
    15:00 +22°C° 0.1 mm 3 mps 740 mmHg 59%
    16:00 +22°C° 0.1 mm 3 mps 740 mmHg 58%
    17:00 +21°C° 0 mm 2 mps 739 mmHg 64%
    18:00 +19°C° 0 mm 2 mps 739 mmHg 70%
    19:00 +19°C° 0 mm 1 mps 739 mmHg 76%
    20:00 +18°C° 0 mm 1 mps 739 mmHg 79%
    21:00 +16°C° 0 mm 1 mps 740 mmHg 82%
    22:00 +15°C° 0 mm 1 mps 740 mmHg 85%
    23:00 +15°C° 0 mm 1 mps 740 mmHg 88%

    Day after tomorrow, 27 May, Monday

    Time Temperature Precipitation Wind Pressure Humidity
    00:00 +14°C° 0 mm 2 mps 739 mmHg 90%
    01:00 +14°C° 0 mm 2 mps 739 mmHg 92%
    02:00 +14°C° 0 mm 2 mps 739 mmHg 93%
    03:00 +14°C° 0 mm 2 mps 739 mmHg 93%
    04:00 +13°C° 0 mm 2 mps 739 mmHg 93%
    05:00 +15°C° 0 mm 2 mps 739 mmHg 88%
    06:00 +17°C° 0 mm 2 mps 739 mmHg 83%
    07:00 +19°C° 0 mm 3 mps 739 mmHg 78%
    08:00 +20°C° 0.4 mm 3 mps 739 mmHg 75%
    09:00 +22°C° 0.4 mm 4 mps 739 mmHg 71%
    10:00 +23°C° 0.4 mm 4 mps 739 mmHg 68%
    11:00 +23°C° 0.4 mm 4 mps 739 mmHg 66%
    12:00 +25°C° 0.4 mm 4 mps 739 mmHg 63%
    13:00 +25°C° 0.4 mm 4 mps 739 mmHg 61%
    14:00 +25°C° 0.2 mm 3 mps 738 mmHg 60%
    15:00 +25°C° 0.2 mm 3 mps 738 mmHg 60%
    16:00 +25°C° 0.2 mm 2 mps 738 mmHg 59%
    17:00 +24°C° 0.3 mm 2 mps 737 mmHg 65%
    18:00 +23°C° 0.3 mm 2 mps 737 mmHg 72%
    19:00 +21°C° 0.3 mm 1 mps 737 mmHg 78%
    20:00 +20°C° 0 mm 1 mps 737 mmHg 80%
    21:00 +20°C° 0 mm 1 mps 737 mmHg 82%
    22:00 +19°C° 0 mm 1 mps 737 mmHg 84%
    23:00 +19°C° 0.2 mm 1 mps 737 mmHg 86%

    28 May, Tuesday

    Time Temperature Precipitation Wind Pressure Humidity
    00:00 +16°C° 0.2 mm 0 mps 737 mmHg 88%
    01:00 +16°C° 0.2 mm 0 mps 736 mmHg 89%
    02:00 +18°C° 0.2 mm 1 mps 736 mmHg 91%
    03:00 +18°C° 0.2 mm 1 mps 735 mmHg 93%
    04:00 +16°C° 0.2 mm 2 mps 735 mmHg 95%
    05:00 +18°C° 0 mm 3 mps 735 mmHg 92%
    06:00 +19°C° 0 mm 4 mps 734 mmHg 89%
    07:00 +20°C° 0 mm 4 mps 734 mmHg 85%
    08:00 +21°C° 0 mm 5 mps 734 mmHg 77%
    09:00 +23°C° 0 mm 5 mps 734 mmHg 70%
    10:00 +25°C° 0 mm 5 mps 734 mmHg 62%
    11:00 +25°C° 0.2 mm 4 mps 734 mmHg 62%
    12:00 +25°C° 0.2 mm 4 mps 733 mmHg 63%
    13:00 +25°C° 0.2 mm 4 mps 733 mmHg 64%
    14:00 +23°C° 1.4 mm 4 mps 733 mmHg 69%
    15:00 +24°C° 1.4 mm 3 mps 732 mmHg 73%
    16:00 +22°C° 1.4 mm 3 mps 732 mmHg 78%
    17:00 +21°C° 0.7 mm 3 mps 732 mmHg 81%
    18:00 +20°C° 0.7 mm 3 mps 732 mmHg 83%
    19:00 +19°C° 0.7 mm 3 mps 732 mmHg 85%
    20:00 +18°C° 0.3 mm 3 mps 732 mmHg 88%
    21:00 +17°C° 0.3 mm 4 mps 732 mmHg 91%
    22:00 +15°C° 0.3 mm 4 mps 733 mmHg 93%
    23:00 +14°C° 0 mm 4 mps 733 mmHg 93%

    29 May, Wednesday

    Time Temperature Precipitation Wind Pressure Humidity
    00:00 +14°C° 0 mm 4 mps 733 mmHg 94%
    01:00 +13°C° 0 mm 4 mps 734 mmHg 94%
    02:00 +12°C° 0 mm 4 mps 734 mmHg 93%
    03:00 +12°C° 0 mm 4 mps 734 mmHg 93%
    04:00 +11°C° 0 mm 3 mps 734 mmHg 93%
    05:00 +11°C° 0 mm 3 mps 735 mmHg 91%
    06:00 +12°C° 0 mm 3 mps 735 mmHg 90%
    07:00 +12°C° 0 mm 3 mps 736 mmHg 88%
    08:00 +13°C° 0 mm 3 mps 736 mmHg 84%
    09:00 +14°C° 0 mm 3 mps 736 mmHg 80%
    10:00 +16°C° 0 mm 3 mps 737 mmHg 76%
    11:00 +16°C° 0.5 mm 3 mps 737 mmHg 78%
    12:00 +16°C° 0.5 mm 3 mps 737 mmHg 80%
    13:00 +15°C° 0.5 mm 2 mps 737 mmHg 82%
    14:00 +15°C° 1.1 mm 2 mps 737 mmHg 86%
    15:00 +14°C° 1.1 mm 2 mps 737 mmHg 89%
    16:00 +14°C° 1.1 mm 2 mps 737 mmHg 92%
    17:00 +13°C° 1.1 mm 3 mps 738 mmHg 93%
    18:00 +12°C° 1.1 mm 3 mps 738 mmHg 93%
    19:00 +12°C° 1.1 mm 4 mps 738 mmHg 94%
    20:00 +12°C° 0.3 mm 4 mps 739 mmHg 94%
    21:00 +12°C° 0.3 mm 4 mps 739 mmHg 95%
    22:00 +11°C° 0.3 mm 4 mps 740 mmHg 95%
    23:00 +11°C° 0.2 mm 4 mps 740 mmHg 95%

    30 May, Thursday

    Time Temperature Precipitation Wind Pressure Humidity
    00:00 +11°C° 0.2 mm 4 mps 740 mmHg 95%
    01:00 +11°C° 0.2 mm 3 mps 741 mmHg 95%
    02:00 +11°C° 0 mm 3 mps 741 mmHg 96%
    03:00 +11°C° 0 mm 3 mps 741 mmHg 96%
    04:00 +11°C° 0 mm 3 mps 742 mmHg 97%
    05:00 +11°C° 0.1 mm 4 mps 742 mmHg 95%
    06:00 +10°C° 0.1 mm 5 mps 743 mmHg 93%
    07:00 +10°C° 0.1 mm 6 mps 743 mmHg 92%
    08:00 +11°C° 0.1 mm 6 mps 744 mmHg 89%
    09:00 +11°C° 0.1 mm 6 mps 744 mmHg 87%
    10:00 +11°C° 0.1 mm 6 mps 745 mmHg 84%
    11:00 +13°C° 0 mm 5 mps 745 mmHg 75%
    12:00 +15°C° 0 mm 5 mps 745 mmHg 66%
    13:00 +17°C° 0 mm 4 mps 746 mmHg 58%
    14:00 +17°C° 0 mm 4 mps 746 mmHg 57%
    15:00 +17°C° 0 mm 4 mps 746 mmHg 56%
    16:00 +17°C° 0 mm 4 mps 746 mmHg 56%
    17:00 +16°C° 0 mm 3 mps 746 mmHg 61%
    18:00 +15°C° 0 mm 2 mps 746 mmHg 66%
    19:00 +13°C° 0 mm 2 mps 746 mmHg 72%
    20:00 +12°C° 0 mm 1 mps 746 mmHg 73%
    21:00 +11°C° 0 mm 1 mps 747 mmHg 75%
    22:00 +9°C° 0 mm 0 mps 747 mmHg 77%
    23:00 +9°C° 0 mm 1 mps 747 mmHg 77%
    Show more